sat.trackr.live / text

‹ back to catalog

STARLINK-36181

NORAD 68047 · 2026-041H

PAYLOAD ACTIVE UNKNOWN

§ Identity

Operator
Country
US
Launch date
2026-03-02
Launch site
AFETR
Launch vehicle
Mass (kg)
RCS (m²)

Purposes: comms

External: N2YO · Heavens-Above · Gunter

§ Orbital elements

Epoch: 2026-05-25T03:03:13.269024Z

Period
94.05 min
Inclination
53.1592°
Eccentricity
0.0001125
Mean motion
15.31040047 rev/d
Perigee alt
471.9 km
Apogee alt
473.5 km
Semi-major
6,850.8 km
B*
2.2017e-4
RAAN
54.6528°
Arg perigee
98.2142°
Mean anomaly
261.8987°
Rev number
1,309

§ Raw data

STARLINK-361811 68047U 26041H   26145.12723691  .00006336  00000+0  22017-3 0  99992 68047  53.1592  54.6528 0001125  98.2142 261.8987 15.31040047 13096

JSON: /api/v1/satellites/68047 · /tle

For live sub-satellite position, see the globe view (requires WebGL).

§ Visibility from observer

Set your observer location to see the next 7 days of passes ≥ 10°. The values pass through the URL so the page stays shareable.

No JS? Fill the form by hand. The geolocation button needs JavaScript.